Time,TemperatureF,DewpointF,PressureIn,WindDirection,WindDirectionDegrees,WindSpeedMPH,WindSpeedGustMPH,Humidity,HourlyPrecipIn,Conditions,Clouds,dailyrainin,SoftwareType,DateUTC
2013-02-04 00:00:00,9.9,5.0,29.94,NW,313,0.0,1.0,80,0.00,,SKC,0.00,VWS V14.01,2013-02-04 06:00:00,
2013-02-04 00:03:00,9.8,4.9,29.94,NW,313,0.0,0.0,80,0.00,,SKC,0.00,VWS V14.01,2013-02-04 06:03:00,
2013-02-04 00:08:00,9.9,5.0,29.94,NW,314,0.0,0.0,80,0.00,,SKC,0.00,VWS V14.01,2013-02-04 06:08:00,
2013-02-04 00:13:00,9.9,4.7,29.94,NW,313,0.0,0.0,79,0.00,,SKC,0.00,VWS V14.01,2013-02-04 06:13:00,
2013-02-04 00:18:00,9.7,4.2,29.94,NW,314,0.0,1.0,78,0.00,,SKC,0.00,VWS V14.01,2013-02-04 06:18:00,
2013-02-04 00:23:00,9.7,4.2,29.94,NW,313,0.0,1.0,78,0.00,,SKC,0.00,VWS V14.01,2013-02-04 06:23:00,
2013-02-04 00:24:00,9.8,4.6,29.94,NW,314,0.0,1.0,79,0.00,,SKC,0.00,VWS V14.01,2013-02-04 06:24:00,
2013-02-04 00:29:00,9.9,5.2,29.94,NW,314,0.0,2.0,81,0.00,,SKC,0.00,VWS V14.01,2013-02-04 06:29:00,
2013-02-04 00:30:00,9.8,4.6,29.94,NW,313,2.0,4.0,79,0.00,,SKC,0.00,VWS V14.01,2013-02-04 06:30:00,
2013-02-04 00:34:00,9.8,4.9,29.94,NW,314,1.0,4.0,80,0.00,,SKC,0.00,VWS V14.01,2013-02-04 06:34:00,
2013-02-04 00:39:00,9.6,4.1,29.94,NW,314,1.0,4.0,78,0.00,,SKC,0.00,VWS V14.01,2013-02-04 06:39:00,
2013-02-04 00:44:00,9.4,3.7,29.95,NW,314,1.0,5.0,77,0.00,,SKC,0.00,VWS V14.01,2013-02-04 06:44:00,
2013-02-04 00:49:00,9.4,3.9,29.95,NW,314,1.0,5.0,78,0.00,,SKC,0.00,VWS V14.01,2013-02-04 06:49:00,
2013-02-04 00:54:00,9.2,3.5,29.95,NW,314,0.0,5.0,77,0.00,,SKC,0.00,VWS V14.01,2013-02-04 06:54:00,
2013-02-04 00:59:00,9.1,3.1,29.95,NW,314,0.0,5.0,76,0.00,,SKC,0.00,VWS V14.01,2013-02-04 06:59:00,
2013-02-04 01:00:00,8.9,2.9,29.95,NW,314,1.0,5.0,76,0.00,,SKC,0.00,VWS V14.01,2013-02-04 07:00:00,
2013-02-04 01:04:00,9.0,3.0,29.95,NW,314,0.0,5.0,76,0.00,,SKC,0.00,VWS V14.01,2013-02-04 07:04:00,
2013-02-04 01:09:00,8.9,2.9,29.94,NW,314,1.0,3.0,76,0.00,,SKC,0.00,VWS V14.01,2013-02-04 07:09:00,
2013-02-04 01:14:00,8.9,3.7,29.94,NW,318,5.0,6.0,79,0.00,,SKC,0.00,VWS V14.01,2013-02-04 07:14:00,
2013-02-04 01:19:00,8.7,2.7,29.95,NW,319,2.0,6.0,76,0.00,,SKC,0.00,VWS V14.01,2013-02-04 07:19:00,
2013-02-04 01:24:00,8.5,2.2,29.95,NW,319,2.0,6.0,75,0.00,,SKC,0.00,VWS V14.01,2013-02-04 07:24:00,
2013-02-04 01:29:00,8.2,1.6,29.95,NW,319,3.0,6.0,74,0.00,,SKC,0.00,VWS V14.01,2013-02-04 07:29:00,
2013-02-04 01:30:00,8.2,2.5,29.95,NNE,26,6.0,7.0,77,0.00,,SKC,0.00,VWS V14.01,2013-02-04 07:30:00,
2013-02-04 01:34:00,8.1,2.4,29.95,NW,319,5.0,6.0,77,0.00,,SKC,0.00,VWS V14.01,2013-02-04 07:34:00,
2013-02-04 01:39:00,8.0,1.7,29.95,NNE,26,1.0,6.0,75,0.00,,SKC,0.00,VWS V14.01,2013-02-04 07:39:00,
2013-02-04 01:45:00,7.8,1.0,29.95,NNE,26,2.0,6.0,73,0.00,,SKC,0.00,VWS V14.01,2013-02-04 07:45:00,
2013-02-04 01:50:00,7.6,0.8,29.95,NNE,26,3.0,6.0,73,0.00,,SKC,0.00,VWS V14.01,2013-02-04 07:50:00,
2013-02-04 01:55:00,7.5,0.7,29.96,NNE,26,2.0,6.0,73,0.00,,SKC,0.00,VWS V14.01,2013-02-04 07:55:00,
2013-02-04 02:00:00,7.7,1.7,29.96,NNE,26,2.0,6.0,76,0.00,,SKC,0.00,VWS V14.01,2013-02-04 08:00:00,
2013-02-04 02:05:00,7.4,0.9,29.95,NNE,30,6.0,7.0,74,0.00,,SKC,0.00,VWS V14.01,2013-02-04 08:05:00,
2013-02-04 02:10:00,7.2,0.1,29.95,NNE,30,2.0,6.0,72,0.00,,SKC,0.00,VWS V14.01,2013-02-04 08:10:00,
2013-02-04 02:15:00,6.9,-0.2,29.96,NNE,30,6.0,7.0,72,0.00,,SKC,0.00,VWS V14.01,2013-02-04 08:15:00,
2013-02-04 02:20:00,6.7,-0.1,29.96,NNE,31,0.0,8.0,73,0.00,,SKC,0.00,VWS V14.01,2013-02-04 08:20:00,
2013-02-04 02:25:00,6.6,-0.2,29.96,NNE,31,0.0,8.0,73,0.00,,SKC,0.00,VWS V14.01,2013-02-04 08:25:00,
2013-02-04 02:30:00,6.3,-0.8,29.96,NNE,31,0.0,8.0,72,0.00,,SKC,0.00,VWS V14.01,2013-02-04 08:30:00,
2013-02-04 02:35:00,6.1,-1.0,29.97,NNE,31,0.0,8.0,72,0.00,,SKC,0.00,VWS V14.01,2013-02-04 08:35:00,
2013-02-04 02:40:00,5.9,-1.5,29.97,NNE,31,0.0,0.0,71,0.00,,SKC,0.00,VWS V14.01,2013-02-04 08:40:00,
2013-02-04 02:45:00,5.8,-0.1,29.96,NNE,31,0.0,1.0,76,0.00,,SKC,0.00,VWS V14.01,2013-02-04 08:45:00,
2013-02-04 02:50:00,5.5,-0.7,29.96,NNE,31,0.0,1.0,75,0.00,,SKC,0.00,VWS V14.01,2013-02-04 08:50:00,
2013-02-04 02:55:00,5.1,-1.6,29.96,NNE,31,1.0,4.0,73,0.00,,SKC,0.00,VWS V14.01,2013-02-04 08:55:00,
2013-02-04 03:00:00,4.7,-2.3,29.96,NNE,31,0.0,4.0,72,0.00,,SKC,0.00,VWS V14.01,2013-02-04 09:00:00,
2013-02-04 03:05:00,4.5,-1.9,29.96,NNE,31,0.0,4.0,74,0.00,,SKC,0.00,VWS V14.01,2013-02-04 09:05:00,
2013-02-04 03:10:00,4.5,-1.7,29.97,NNE,31,0.0,0.0,75,0.00,,SKC,0.00,VWS V14.01,2013-02-04 09:10:00,
2013-02-04 03:15:00,4.5,-1.9,29.97,NNE,31,2.0,3.0,74,0.00,,SKC,0.00,VWS V14.01,2013-02-04 09:15:00,
2013-02-04 03:20:00,4.5,-1.9,29.97,NNE,31,0.0,4.0,74,0.00,,SKC,0.00,VWS V14.01,2013-02-04 09:20:00,
2013-02-04 03:25:00,4.8,-1.6,29.97,NNE,31,0.0,4.0,74,0.00,,SKC,0.00,VWS V14.01,2013-02-04 09:25:00,
2013-02-04 03:30:00,5.1,0.0,29.98,NNE,31,0.0,4.0,79,0.00,,SKC,0.00,VWS V14.01,2013-02-04 09:30:00,
2013-02-04 03:35:00,5.1,-0.5,29.98,NNE,31,0.0,0.0,77,0.00,,SKC,0.00,VWS V14.01,2013-02-04 09:35:00,
2013-02-04 03:40:00,5.0,-0.9,29.97,NNE,31,0.0,3.0,76,0.00,,SKC,0.00,VWS V14.01,2013-02-04 09:40:00,
2013-02-04 03:45:00,4.9,-1.3,29.97,NNE,31,0.0,3.0,75,0.00,,SKC,0.00,VWS V14.01,2013-02-04 09:45:00,
2013-02-04 03:50:00,5.0,-0.6,29.97,NNE,31,0.0,3.0,77,0.00,,SKC,0.00,VWS V14.01,2013-02-04 09:50:00,
2013-02-04 03:55:00,4.9,-1.0,29.98,NNE,31,0.0,3.0,76,0.00,,SKC,0.00,VWS V14.01,2013-02-04 09:55:00,
2013-02-04 04:00:00,4.5,-1.9,29.98,NNE,30,0.0,4.0,74,0.00,,SKC,0.00,VWS V14.01,2013-02-04 10:00:00,
2013-02-04 04:05:00,4.0,-2.7,29.99,NNE,30,0.0,1.0,73,0.00,,SKC,0.00,VWS V14.01,2013-02-04 10:05:00,
2013-02-04 04:10:00,3.8,-2.3,29.99,NNE,30,1.0,5.0,75,0.00,,SKC,0.00,VWS V14.01,2013-02-04 10:10:00,
2013-02-04 04:15:00,3.5,-2.9,29.99,NNE,30,0.0,5.0,74,0.00,,SKC,0.00,VWS V14.01,2013-02-04 10:15:00,
2013-02-04 04:20:00,3.1,-3.6,29.99,NNE,30,0.0,5.0,73,0.00,,SKC,0.00,VWS V14.01,2013-02-04 10:20:00,
2013-02-04 04:25:00,2.8,-3.9,29.99,NNE,29,0.0,5.0,73,0.00,,SKC,0.00,VWS V14.01,2013-02-04 10:25:00,
2013-02-04 04:30:00,2.5,-4.2,29.99,NNE,29,0.0,5.0,73,0.00,,SKC,0.00,VWS V14.01,2013-02-04 10:30:00,
2013-02-04 04:35:00,2.5,-3.3,29.99,NNE,28,1.0,5.0,76,0.00,,SKC,0.00,VWS V14.01,2013-02-04 10:35:00,
2013-02-04 04:41:00,2.2,-4.2,29.99,NNE,28,2.0,5.0,74,0.00,,SKC,0.00,VWS V14.01,2013-02-04 10:41:00,
2013-02-04 04:46:00,1.9,-4.5,29.99,NNE,28,2.0,5.0,74,0.00,,SKC,0.00,VWS V14.01,2013-02-04 10:46:00,
2013-02-04 04:51:00,1.7,-4.7,29.99,NNE,27,2.0,6.0,74,0.00,,SKC,0.00,VWS V14.01,2013-02-04 10:51:00,
2013-02-04 04:56:00,1.5,-4.8,29.99,NNE,25,5.0,6.0,74,0.00,,SKC,0.00,VWS V14.01,2013-02-04 10:56:00,
2013-02-04 05:00:00,1.3,-5.0,29.99,NNE,19,0.0,6.0,74,0.00,,SKC,0.00,VWS V14.01,2013-02-04 11:00:00,
2013-02-04 05:01:00,1.4,-4.9,30.00,NNE,24,0.0,6.0,74,0.00,,SKC,0.00,VWS V14.01,2013-02-04 11:01:00,
2013-02-04 05:06:00,1.3,-5.0,30.00,NNE,19,0.0,0.0,74,0.00,,SKC,0.00,VWS V14.01,2013-02-04 11:06:00,
2013-02-04 05:11:00,1.1,-5.2,29.99,NNE,19,2.0,5.0,74,0.00,,SKC,0.00,VWS V14.01,2013-02-04 11:11:00,
2013-02-04 05:16:00,1.2,-4.6,29.99,NNE,19,0.0,5.0,76,0.00,,SKC,0.00,VWS V14.01,2013-02-04 11:16:00,
2013-02-04 05:21:00,1.1,-4.7,29.99,NNE,19,3.0,5.0,76,0.00,,SKC,0.00,VWS V14.01,2013-02-04 11:21:00,
2013-02-04 05:26:00,1.0,-5.1,29.99,NNE,19,1.0,5.0,75,0.00,,SKC,0.00,VWS V14.01,2013-02-04 11:26:00,
2013-02-04 05:30:00,0.8,-5.2,29.99,NNE,19,1.0,5.0,75,0.00,,SKC,0.00,VWS V14.01,2013-02-04 11:30:00,
2013-02-04 05:31:00,0.9,-5.2,29.99,NNE,19,0.0,5.0,75,0.00,,SKC,0.00,VWS V14.01,2013-02-04 11:31:00,
2013-02-04 05:36:00,0.8,-5.2,30.00,NNE,19,0.0,2.0,75,0.00,,SKC,0.00,VWS V14.01,2013-02-04 11:36:00,
2013-02-04 05:41:00,0.8,-5.2,30.00,NNE,19,0.0,5.0,75,0.00,,SKC,0.00,VWS V14.01,2013-02-04 11:41:00,
2013-02-04 05:46:00,0.8,-5.2,30.00,NNE,19,2.0,5.0,75,0.00,,SKC,0.00,VWS V14.01,2013-02-04 11:46:00,
2013-02-04 05:51:00,0.8,-5.2,30.01,NNE,18,0.0,5.0,75,0.00,,SKC,0.00,VWS V14.01,2013-02-04 11:51:00,
2013-02-04 05:56:00,0.7,-5.3,30.01,NNE,18,0.0,5.0,75,0.00,,SKC,0.00,VWS V14.01,2013-02-04 11:56:00,
2013-02-04 06:00:00,0.6,-5.4,30.01,NNE,17,2.0,6.0,75,0.00,,SKC,0.00,VWS V14.01,2013-02-04 12:00:00,
2013-02-04 06:01:00,0.8,-5.0,30.01,NNE,17,3.0,6.0,76,0.00,,SKC,0.00,VWS V14.01,2013-02-04 12:01:00,
2013-02-04 06:06:00,0.6,-5.4,30.01,NNE,17,5.0,5.0,75,0.00,,SKC,0.00,VWS V14.01,2013-02-04 12:06:00,
2013-02-04 06:11:00,0.3,-6.0,30.01,NNE,17,3.0,5.0,74,0.00,,SKC,0.00,VWS V14.01,2013-02-04 12:11:00,
2013-02-04 06:16:00,0.1,-6.2,30.01,NNE,16,4.0,6.0,74,0.00,,SKC,0.00,VWS V14.01,2013-02-04 12:16:00,
2013-02-04 06:21:00,-0.1,-6.1,30.01,NNE,16,1.0,6.0,75,0.00,,SKC,0.00,VWS V14.01,2013-02-04 12:21:00,
2013-02-04 06:26:00,-0.3,-6.3,30.02,NNE,16,2.0,6.0,75,0.00,,SKC,0.00,VWS V14.01,2013-02-04 12:26:00,
2013-02-04 06:30:00,-0.8,-7.1,30.02,NNE,16,0.0,6.0,74,0.00,,SKC,0.00,VWS V14.01,2013-02-04 12:30:00,
2013-02-04 06:31:00,-0.6,-6.9,30.02,NNE,16,1.0,6.0,74,0.00,,SKC,0.00,VWS V14.01,2013-02-04 12:31:00,
2013-02-04 06:36:00,-0.9,-7.2,30.02,NNE,16,0.0,1.0,74,0.00,,SKC,0.00,VWS V14.01,2013-02-04 12:36:00,
2013-02-04 06:41:00,-1.2,-7.5,30.02,NNE,16,2.0,2.0,74,0.00,,SKC,0.00,VWS V14.01,2013-02-04 12:41:00,
2013-02-04 06:46:00,-1.4,-7.7,30.02,NNE,16,0.0,3.0,74,0.00,,SKC,0.00,VWS V14.01,2013-02-04 12:46:00,
2013-02-04 06:51:00,-1.6,-7.8,30.02,NNE,16,0.0,4.0,74,0.00,,SKC,0.00,VWS V14.01,2013-02-04 12:51:00,
2013-02-04 06:56:00,-1.9,-8.1,30.02,NNE,16,0.0,4.0,74,0.00,,SKC,0.00,VWS V14.01,2013-02-04 12:56:00,
2013-02-04 07:00:00,-2.2,-8.2,30.03,NNE,16,0.0,4.0,75,0.00,,SKC,0.00,VWS V14.01,2013-02-04 13:00:00,
2013-02-04 07:01:00,-2.1,-8.1,30.02,NNE,16,0.0,4.0,75,0.00,,SKC,0.00,VWS V14.01,2013-02-04 13:01:00,
2013-02-04 07:06:00,-2.3,-8.3,30.02,NNE,16,0.0,1.0,75,0.00,,SKC,0.00,VWS V14.01,2013-02-04 13:06:00,
2013-02-04 07:12:00,-2.6,-8.6,30.02,NNE,16,1.0,1.0,75,0.00,,SKC,0.00,VWS V14.01,2013-02-04 13:12:00,
2013-02-04 07:17:00,-2.8,-8.7,30.02,NNE,16,0.0,2.0,75,0.00,,SKC,0.00,VWS V14.01,2013-02-04 13:17:00,
2013-02-04 07:22:00,-2.7,-8.1,30.02,NNE,16,0.0,2.0,77,0.00,,SKC,0.00,VWS V14.01,2013-02-04 13:22:00,
2013-02-04 07:27:00,-2.7,-7.8,30.01,NNE,16,0.0,2.0,78,0.00,,SKC,0.00,VWS V14.01,2013-02-04 13:27:00,
2013-02-04 07:30:00,-3.2,-8.6,30.02,NNE,16,0.0,2.0,77,0.00,,SKC,0.00,VWS V14.01,2013-02-04 13:30:00,
2013-02-04 07:32:00,-3.0,-8.1,30.02,NNE,16,0.0,2.0,78,0.00,,SKC,0.00,VWS V14.01,2013-02-04 13:32:00,
2013-02-04 07:37:00,-3.3,-8.7,30.01,NNE,16,0.0,0.0,77,0.00,,SKC,0.00,VWS V14.01,2013-02-04 13:37:00,
2013-02-04 07:42:00,-3.4,-8.8,30.01,NNE,16,0.0,0.0,77,0.00,,SKC,0.00,VWS V14.01,2013-02-04 13:42:00,
2013-02-04 07:47:00,-3.4,-8.8,30.01,NNE,16,0.0,1.0,77,0.00,,SKC,0.00,VWS V14.01,2013-02-04 13:47:00,
2013-02-04 07:52:00,-3.4,-8.8,30.01,NNE,16,0.0,1.0,77,0.00,,SKC,0.00,VWS V14.01,2013-02-04 13:52:00,
2013-02-04 07:57:00,-3.4,-8.8,30.01,NNE,16,0.0,1.0,77,0.00,,SKC,0.00,VWS V14.01,2013-02-04 13:57:00,
2013-02-04 08:00:00,-3.2,-8.3,30.01,NNE,16,0.0,1.0,78,0.00,,SKC,0.00,VWS V14.01,2013-02-04 14:00:00,
2013-02-04 08:02:00,-3.3,-8.4,30.01,NNE,16,0.0,1.0,78,0.00,,SKC,0.00,VWS V14.01,2013-02-04 14:02:00,
2013-02-04 08:07:00,-3.2,-8.3,30.01,NNE,16,0.0,0.0,78,0.00,,SKC,0.00,VWS V14.01,2013-02-04 14:07:00,
2013-02-04 08:12:00,-3.3,-8.7,30.02,NNE,16,0.0,0.0,77,0.00,,SKC,0.00,VWS V14.01,2013-02-04 14:12:00,
2013-02-04 08:17:00,-3.2,-8.6,30.02,NNE,16,0.0,0.0,77,0.00,,SKC,0.00,VWS V14.01,2013-02-04 14:17:00,
2013-02-04 08:22:00,-2.7,-7.6,30.02,NNE,16,0.0,0.0,79,0.00,,SKC,0.00,VWS V14.01,2013-02-04 14:22:00,
2013-02-04 08:27:00,-2.2,-7.4,30.02,NNE,16,0.0,0.0,78,0.00,,SKC,0.00,VWS V14.01,2013-02-04 14:27:00,
2013-02-04 08:30:00,-1.6,-6.8,30.02,NNE,16,1.0,2.0,78,0.00,,SKC,0.00,VWS V14.01,2013-02-04 14:30:00,
2013-02-04 08:32:00,-1.8,-7.0,30.02,NNE,16,0.0,2.0,78,0.00,,SKC,0.00,VWS V14.01,2013-02-04 14:32:00,
2013-02-04 08:37:00,-1.4,-6.8,30.02,NNE,16,0.0,2.0,77,0.00,,SKC,0.00,VWS V14.01,2013-02-04 14:37:00,
2013-02-04 08:42:00,-0.3,-5.2,30.02,NNE,16,0.0,2.0,79,0.00,,SKC,0.00,VWS V14.01,2013-02-04 14:42:00,
2013-02-04 08:47:00,0.5,-3.9,30.02,NNE,16,0.0,2.0,81,0.00,,SKC,0.00,VWS V14.01,2013-02-04 14:47:00,
2013-02-04 08:52:00,1.0,-4.0,30.02,NNE,16,0.0,2.0,79,0.00,,SKC,0.00,VWS V14.01,2013-02-04 14:52:00,
2013-02-04 08:57:00,1.4,-4.1,30.02,NNE,16,0.0,2.0,77,0.00,,SKC,0.00,VWS V14.01,2013-02-04 14:57:00,
2013-02-04 09:00:00,2.4,-2.9,30.02,NNE,16,0.0,2.0,78,0.00,,SKC,0.00,VWS V14.01,2013-02-04 15:00:00,
2013-02-04 09:02:00,1.9,-4.2,30.02,NNE,16,0.0,2.0,75,0.00,,SKC,0.00,VWS V14.01,2013-02-04 15:02:00,
2013-02-04 09:07:00,2.6,-2.7,30.02,NNE,16,0.0,1.0,78,0.00,,SKC,0.00,VWS V14.01,2013-02-04 15:07:00,
2013-02-04 09:12:00,3.0,-3.1,30.02,NNE,16,1.0,1.0,75,0.00,,SKC,0.00,VWS V14.01,2013-02-04 15:12:00,
2013-02-04 09:17:00,3.5,-3.2,30.02,NNE,16,1.0,2.0,73,0.00,,SKC,0.00,VWS V14.01,2013-02-04 15:17:00,
2013-02-04 09:22:00,3.8,-3.5,30.02,NNE,16,0.0,2.0,71,0.00,,SKC,0.00,VWS V14.01,2013-02-04 15:22:00,
2013-02-04 09:27:00,4.3,-2.1,30.01,NNE,16,0.0,2.0,74,0.00,,SKC,0.00,VWS V14.01,2013-02-04 15:27:00,
2013-02-04 09:30:00,5.1,-2.2,30.02,NNE,16,0.0,2.0,71,0.00,,SKC,0.00,VWS V14.01,2013-02-04 15:30:00,
2013-02-04 09:32:00,4.8,-2.5,30.02,NNE,16,0.0,2.0,71,0.00,,SKC,0.00,VWS V14.01,2013-02-04 15:32:00,
2013-02-04 09:37:00,5.4,-2.2,30.02,NNE,16,1.0,2.0,70,0.00,,SKC,0.00,VWS V14.01,2013-02-04 15:37:00,
2013-02-04 09:42:00,5.5,-2.8,30.01,NNE,16,0.0,2.0,68,0.00,,SKC,0.00,VWS V14.01,2013-02-04 15:42:00,
2013-02-04 09:47:00,5.7,-2.0,30.02,NNE,16,0.0,2.0,70,0.00,,SKC,0.00,VWS V14.01,2013-02-04 15:47:00,
2013-02-04 09:53:00,5.9,-2.4,30.02,NNE,16,0.0,2.0,68,0.00,,SKC,0.00,VWS V14.01,2013-02-04 15:53:00,
2013-02-04 09:58:00,5.9,-2.7,30.02,NNE,16,0.0,2.0,67,0.00,,SKC,0.00,VWS V14.01,2013-02-04 15:58:00,
2013-02-04 10:00:00,5.9,-3.0,30.02,NNE,16,0.0,2.0,66,0.00,,SKC,0.00,VWS V14.01,2013-02-04 16:00:00,
2013-02-04 10:03:00,5.9,-3.0,30.02,NNE,16,0.0,2.0,66,0.00,,SKC,0.00,VWS V14.01,2013-02-04 16:03:00,
2013-02-04 10:08:00,6.0,-2.3,30.03,NNE,16,0.0,0.0,68,0.00,,SKC,0.00,VWS V14.01,2013-02-04 16:08:00,
2013-02-04 10:13:00,6.1,-2.2,30.02,NNE,16,0.0,0.0,68,0.00,,SKC,0.00,VWS V14.01,2013-02-04 16:13:00,
2013-02-04 10:18:00,6.1,-2.8,30.03,NNE,16,0.0,0.0,66,0.00,,SKC,0.00,VWS V14.01,2013-02-04 16:18:00,
2013-02-04 10:23:00,6.1,-3.1,30.02,NNE,16,0.0,1.0,65,0.00,,SKC,0.00,VWS V14.01,2013-02-04 16:23:00,
2013-02-04 10:28:00,5.9,-3.3,30.03,NNE,16,0.0,1.0,65,0.00,,SKC,0.00,VWS V14.01,2013-02-04 16:28:00,
2013-02-04 10:30:00,6.1,-2.2,30.03,NNE,16,0.0,1.0,68,0.00,,SKC,0.00,VWS V14.01,2013-02-04 16:30:00,
2013-02-04 10:33:00,6.1,-1.6,30.03,NNE,16,0.0,1.0,70,0.00,,SKC,0.00,VWS V14.01,2013-02-04 16:33:00,
2013-02-04 10:38:00,5.7,-3.2,30.03,NNE,16,1.0,1.0,66,0.00,,SKC,0.00,VWS V14.01,2013-02-04 16:38:00,
2013-02-04 10:43:00,5.4,-3.5,30.03,NNE,16,0.0,2.0,66,0.00,,SKC,0.00,VWS V14.01,2013-02-04 16:43:00,
2013-02-04 10:48:00,5.5,-3.1,30.03,NNE,16,2.0,2.0,67,0.00,,SKC,0.00,VWS V14.01,2013-02-04 16:48:00,
2013-02-04 10:53:00,5.9,-1.2,30.03,NNE,16,0.0,4.0,72,0.00,,SKC,0.00,VWS V14.01,2013-02-04 16:53:00,
2013-02-04 10:58:00,6.0,-2.0,30.03,NNE,16,0.0,4.0,69,0.00,,SKC,0.00,VWS V14.01,2013-02-04 16:58:00,
2013-02-04 11:00:00,6.2,-2.7,30.03,NNE,16,0.0,4.0,66,0.00,,SKC,0.00,VWS V14.01,2013-02-04 17:00:00,
2013-02-04 11:03:00,6.1,-2.5,30.02,NNE,16,0.0,4.0,67,0.00,,SKC,0.00,VWS V14.01,2013-02-04 17:03:00,
2013-02-04 11:08:00,6.3,-2.6,30.02,NNE,16,2.0,2.0,66,0.00,,SKC,0.00,VWS V14.01,2013-02-04 17:08:00,
2013-02-04 11:13:00,6.6,-1.7,30.01,NNE,16,0.0,2.0,68,0.00,,SKC,0.00,VWS V14.01,2013-02-04 17:13:00,
2013-02-04 11:18:00,7.0,-1.0,30.01,NNE,16,0.0,2.0,69,0.00,,SKC,0.00,VWS V14.01,2013-02-04 17:18:00,
2013-02-04 11:23:00,7.2,-2.1,30.01,NNE,16,0.0,2.0,65,0.00,,SKC,0.00,VWS V14.01,2013-02-04 17:23:00,
2013-02-04 11:28:00,7.3,-2.6,30.01,NNE,16,0.0,2.0,63,0.00,,SKC,0.00,VWS V14.01,2013-02-04 17:28:00,
2013-02-04 11:30:00,7.6,-2.0,30.00,NNE,16,0.0,2.0,64,0.00,,SKC,0.00,VWS V14.01,2013-02-04 17:30:00,
2013-02-04 11:33:00,7.4,-2.5,30.01,NNE,16,2.0,2.0,63,0.00,,SKC,0.00,VWS V14.01,2013-02-04 17:33:00,
2013-02-04 11:38:00,7.7,-1.0,30.00,NNE,16,0.0,2.0,67,0.00,,SKC,0.00,VWS V14.01,2013-02-04 17:38:00,
2013-02-04 11:43:00,7.9,-1.7,30.00,NNE,16,0.0,2.0,64,0.00,,SKC,0.00,VWS V14.01,2013-02-04 17:43:00,
2013-02-04 11:48:00,8.0,-2.0,30.00,NNE,16,0.0,2.0,63,0.00,,SKC,0.00,VWS V14.01,2013-02-04 17:48:00,
2013-02-04 11:53:00,8.1,-2.2,30.00,NNE,16,0.0,4.0,62,0.00,,SKC,0.00,VWS V14.01,2013-02-04 17:53:00,
2013-02-04 11:58:00,8.2,-1.5,29.99,NNE,16,0.0,5.0,64,0.00,,SKC,0.00,VWS V14.01,2013-02-04 17:58:00,
2013-02-04 12:00:00,8.5,-1.2,29.99,NNE,16,1.0,5.0,64,0.00,,SKC,0.00,VWS V14.01,2013-02-04 18:00:00,
2013-02-04 12:04:00,8.5,-0.8,29.99,NNE,16,0.0,5.0,65,0.00,,SKC,0.00,VWS V14.01,2013-02-04 18:04:00,
2013-02-04 12:09:00,8.6,-1.4,29.98,NNE,16,1.0,4.0,63,0.00,,SKC,0.00,VWS V14.01,2013-02-04 18:09:00,
2013-02-04 12:14:00,8.7,-1.6,29.98,NNE,17,1.0,4.0,62,0.00,,SKC,0.00,VWS V14.01,2013-02-04 18:14:00,
2013-02-04 12:19:00,8.3,-2.4,29.98,NNE,17,2.0,4.0,61,0.00,,SKC,0.00,VWS V14.01,2013-02-04 18:19:00,
2013-02-04 12:24:00,8.3,-2.0,29.98,NNE,17,2.0,4.0,62,0.00,,SKC,0.00,VWS V14.01,2013-02-04 18:24:00,
2013-02-04 12:29:00,8.6,-2.1,29.97,NNE,17,1.0,4.0,61,0.00,,SKC,0.00,VWS V14.01,2013-02-04 18:29:00,
2013-02-04 12:30:00,8.9,-1.8,29.97,NNE,17,0.0,4.0,61,0.00,,SKC,0.00,VWS V14.01,2013-02-04 18:30:00,
2013-02-04 12:34:00,8.8,-1.9,29.97,NNE,17,0.0,4.0,61,0.00,,SKC,0.00,VWS V14.01,2013-02-04 18:34:00,
2013-02-04 12:39:00,9.1,-1.6,29.97,NNE,17,0.0,4.0,61,0.00,,SKC,0.00,VWS V14.01,2013-02-04 18:39:00,
2013-02-04 12:44:00,9.5,0.4,29.97,NNE,17,0.0,4.0,66,0.00,,SKC,0.00,VWS V14.01,2013-02-04 18:44:00,
2013-02-04 12:49:00,9.9,-0.2,29.96,NNE,17,0.0,4.0,63,0.00,,SKC,0.00,VWS V14.01,2013-02-04 18:49:00,
2013-02-04 12:54:00,9.9,-0.9,29.96,NNE,17,0.0,4.0,61,0.00,,SKC,0.00,VWS V14.01,2013-02-04 18:54:00,
2013-02-04 12:59:00,10.0,-1.1,29.96,NNE,17,0.0,4.0,60,0.00,,SKC,0.00,VWS V14.01,2013-02-04 18:59:00,
2013-02-04 13:00:00,10.1,-1.4,29.96,NNE,17,0.0,4.0,59,0.00,,SKC,0.00,VWS V14.01,2013-02-04 19:00:00,
2013-02-04 13:04:00,10.2,-1.3,29.96,NNE,17,2.0,4.0,59,0.00,,SKC,0.00,VWS V14.01,2013-02-04 19:04:00,
2013-02-04 13:09:00,10.5,1.7,29.96,NNE,17,0.0,4.0,67,0.00,,SKC,0.00,VWS V14.01,2013-02-04 19:09:00,
2013-02-04 13:14:00,10.7,0.3,29.95,NNE,17,0.0,5.0,62,0.00,,SKC,0.00,VWS V14.01,2013-02-04 19:14:00,
2013-02-04 13:19:00,10.8,-0.7,29.94,NNE,21,3.0,5.0,59,0.00,,SKC,0.00,VWS V14.01,2013-02-04 19:19:00,
2013-02-04 13:24:00,10.8,-0.7,29.94,NNE,21,0.0,5.0,59,0.00,,SKC,0.00,VWS V14.01,2013-02-04 19:24:00,
2013-02-04 13:29:00,10.9,-1.0,29.94,NNE,21,0.0,5.0,58,0.00,,SKC,0.00,VWS V14.01,2013-02-04 19:29:00,
2013-02-04 13:30:00,11.4,-0.1,29.94,NNE,21,0.0,5.0,59,0.00,,SKC,0.00,VWS V14.01,2013-02-04 19:30:00,
2013-02-04 13:34:00,11.4,-0.1,29.94,NNE,21,0.0,5.0,59,0.00,,SKC,0.00,VWS V14.01,2013-02-04 19:34:00,
2013-02-04 13:39:00,11.3,-1.0,29.94,NNE,21,2.0,6.0,57,0.00,,SKC,0.00,VWS V14.01,2013-02-04 19:39:00,
2013-02-04 13:45:00,10.5,-1.3,29.95,NNE,20,0.0,6.0,58,0.00,,SKC,0.00,VWS V14.01,2013-02-04 19:45:00,
2013-02-04 13:50:00,9.9,-1.9,29.95,NNE,17,0.0,6.0,58,0.00,,SKC,0.00,VWS V14.01,2013-02-04 19:50:00,
2013-02-04 13:55:00,9.8,-1.6,29.96,NNE,17,0.0,6.0,59,0.00,,SKC,0.00,VWS V14.01,2013-02-04 19:55:00,
2013-02-04 14:00:00,9.7,-1.7,29.95,NNE,17,5.0,6.0,59,0.00,,SKC,0.00,VWS V14.01,2013-02-04 20:00:00,
2013-02-04 14:05:00,9.5,-1.9,29.95,NNE,15,0.0,6.0,59,0.00,,SKC,0.00,VWS V14.01,2013-02-04 20:05:00,
2013-02-04 14:10:00,9.9,-1.9,29.95,NNE,14,0.0,6.0,58,0.00,,SKC,0.00,VWS V14.01,2013-02-04 20:10:00,
2013-02-04 14:15:00,9.8,-2.0,29.95,NNE,14,0.0,6.0,58,0.00,,SKC,0.00,VWS V14.01,2013-02-04 20:15:00,
2013-02-04 14:20:00,9.5,-2.3,29.95,NNE,13,3.0,6.0,58,0.00,,SKC,0.00,VWS V14.01,2013-02-04 20:20:00,
2013-02-04 14:25:00,9.5,-2.3,29.95,SSW,205,6.0,7.0,58,0.00,,SKC,0.00,VWS V14.01,2013-02-04 20:25:00,
2013-02-04 14:30:00,9.9,-1.5,29.95,SSW,204,2.0,7.0,59,0.00,,SKC,0.00,VWS V14.01,2013-02-04 20:30:00,
2013-02-04 14:35:00,10.1,-1.7,29.95,SSW,204,0.0,7.0,58,0.00,,SKC,0.00,VWS V14.01,2013-02-04 20:35:00,
2013-02-04 14:40:00,10.4,-1.4,29.95,SSW,204,5.0,8.0,58,0.00,,SKC,0.00,VWS V14.01,2013-02-04 20:40:00,
2013-02-04 14:45:00,10.4,-1.8,29.95,SSW,204,4.0,8.0,57,0.00,,SKC,0.00,VWS V14.01,2013-02-04 20:45:00,
2013-02-04 14:50:00,10.3,-1.9,29.95,SSW,204,2.0,8.0,57,0.00,,SKC,0.00,VWS V14.01,2013-02-04 20:50:00,
2013-02-04 14:55:00,10.4,-1.8,29.94,SSW,204,4.0,8.0,57,0.00,,SKC,0.00,VWS V14.01,2013-02-04 20:55:00,
2013-02-04 15:00:00,10.8,-1.4,29.94,SSW,204,0.0,8.0,57,0.00,,SKC,0.00,VWS V14.01,2013-02-04 21:00:00,
2013-02-04 15:05:00,11.8,-0.1,29.94,SSW,204,4.0,8.0,58,0.00,,SKC,0.00,VWS V14.01,2013-02-04 21:05:00,
2013-02-04 15:10:00,11.3,-1.3,29.94,SSW,204,0.0,6.0,56,0.00,,SKC,0.00,VWS V14.01,2013-02-04 21:10:00,
2013-02-04 15:15:00,10.9,-0.2,29.93,SSW,204,2.0,6.0,60,0.00,,SKC,0.00,VWS V14.01,2013-02-04 21:15:00,
2013-02-04 15:20:00,10.7,-1.5,29.93,SSW,204,0.0,6.0,57,0.00,,SKC,0.00,VWS V14.01,2013-02-04 21:20:00,
2013-02-04 15:25:00,10.5,-2.1,29.93,SSW,204,0.0,6.0,56,0.00,,SKC,0.00,VWS V14.01,2013-02-04 21:25:00,
2013-02-04 15:30:00,10.6,-1.6,29.92,SSW,204,0.0,6.0,57,0.00,,SKC,0.00,VWS V14.01,2013-02-04 21:30:00,
2013-02-04 15:35:00,10.9,-0.6,29.92,SSW,204,1.0,1.0,59,0.00,,SKC,0.00,VWS V14.01,2013-02-04 21:35:00,
2013-02-04 15:40:00,10.8,-0.3,29.91,SSW,204,0.0,2.0,60,0.00,,SKC,0.00,VWS V14.01,2013-02-04 21:40:00,
2013-02-04 15:45:00,10.9,0.4,29.91,SSW,204,0.0,2.0,62,0.00,,SKC,0.00,VWS V14.01,2013-02-04 21:45:00,
2013-02-04 15:50:00,11.0,0.2,29.91,SSW,204,1.0,4.0,61,0.00,,SKC,0.00,VWS V14.01,2013-02-04 21:50:00,
2013-02-04 15:55:00,11.1,-0.4,29.91,SSW,204,1.0,5.0,59,0.00,,SKC,0.00,VWS V14.01,2013-02-04 21:55:00,
2013-02-04 16:00:00,11.2,0.0,29.92,SSW,204,0.0,5.0,60,0.00,,SKC,0.00,VWS V14.01,2013-02-04 22:00:00,
2013-02-04 16:05:00,11.4,0.6,29.91,SSW,204,0.0,0.0,61,0.00,,SKC,0.00,VWS V14.01,2013-02-04 22:05:00,
2013-02-04 16:10:00,11.6,0.8,29.91,SSW,204,0.0,0.0,61,0.00,,SKC,0.00,VWS V14.01,2013-02-04 22:10:00,
2013-02-04 16:16:00,11.8,3.3,29.91,SSW,204,0.0,0.0,68,0.00,,SKC,0.00,VWS V14.01,2013-02-04 22:16:00,
2013-02-04 16:21:00,11.8,3.0,29.91,SSW,204,0.0,0.0,67,0.00,,SKC,0.00,VWS V14.01,2013-02-04 22:21:00,
2013-02-04 16:26:00,11.8,2.3,29.91,SSW,204,0.0,0.0,65,0.00,,SKC,0.00,VWS V14.01,2013-02-04 22:26:00,
2013-02-04 16:30:00,11.5,1.7,29.91,SSW,203,0.0,0.0,64,0.00,,SKC,0.00,VWS V14.01,2013-02-04 22:30:00,
2013-02-04 16:31:00,11.7,1.9,29.91,SSW,204,0.0,0.0,64,0.00,,SKC,0.00,VWS V14.01,2013-02-04 22:31:00,
2013-02-04 16:36:00,11.4,1.3,29.91,SSW,203,0.0,0.0,63,0.00,,SKC,0.00,VWS V14.01,2013-02-04 22:36:00,
2013-02-04 16:41:00,10.6,-0.2,29.91,SSW,204,0.0,0.0,61,0.00,,SKC,0.00,VWS V14.01,2013-02-04 22:41:00,
2013-02-04 16:46:00,10.2,0.1,29.91,SSW,204,0.0,0.0,63,0.00,,SKC,0.00,VWS V14.01,2013-02-04 22:46:00,
2013-02-04 16:51:00,9.9,-0.5,29.91,SSW,204,0.0,2.0,62,0.00,,SKC,0.00,VWS V14.01,2013-02-04 22:51:00,
2013-02-04 16:56:00,9.7,-0.7,29.91,SSW,204,1.0,4.0,62,0.00,,SKC,0.00,VWS V14.01,2013-02-04 22:56:00,
2013-02-04 17:00:00,9.5,-0.5,29.90,SSW,203,0.0,4.0,63,0.00,,SKC,0.00,VWS V14.01,2013-02-04 23:00:00,
2013-02-04 17:01:00,9.6,-0.4,29.90,SSW,204,0.0,4.0,63,0.00,,SKC,0.00,VWS V14.01,2013-02-04 23:01:00,
2013-02-04 17:06:00,9.5,-0.5,29.90,SSW,203,0.0,0.0,63,0.00,,SKC,0.00,VWS V14.01,2013-02-04 23:06:00,
2013-02-04 17:11:00,9.5,0.1,29.90,SSW,204,0.0,0.0,65,0.00,,SKC,0.00,VWS V14.01,2013-02-04 23:11:00,
2013-02-04 17:16:00,9.6,0.5,29.90,SSW,203,0.0,0.0,66,0.00,,SKC,0.00,VWS V14.01,2013-02-04 23:16:00,
2013-02-04 17:21:00,9.4,0.0,29.90,SSW,204,0.0,0.0,65,0.00,,SKC,0.00,VWS V14.01,2013-02-04 23:21:00,
2013-02-04 17:26:00,9.2,-0.5,29.89,SSW,204,0.0,0.0,64,0.00,,SKC,0.00,VWS V14.01,2013-02-04 23:26:00,
2013-02-04 17:30:00,8.9,-0.4,29.90,SSW,204,0.0,0.0,65,0.00,,SKC,0.00,VWS V14.01,2013-02-04 23:30:00,
2013-02-04 17:31:00,9.0,-0.4,29.90,SSW,204,0.0,0.0,65,0.00,,SKC,0.00,VWS V14.01,2013-02-04 23:31:00,
2013-02-04 17:36:00,8.9,-0.4,29.90,SSW,204,0.0,0.0,65,0.00,,SKC,0.00,VWS V14.01,2013-02-04 23:36:00,
2013-02-04 17:41:00,8.9,0.2,29.89,SSW,204,0.0,0.0,67,0.00,,SKC,0.00,VWS V14.01,2013-02-04 23:41:00,
2013-02-04 17:46:00,9.0,0.3,29.88,SSW,204,0.0,0.0,67,0.00,,SKC,0.00,VWS V14.01,2013-02-04 23:46:00,
2013-02-04 17:51:00,9.0,0.3,29.88,SSW,204,0.0,0.0,67,0.00,,SKC,0.00,VWS V14.01,2013-02-04 23:51:00,
2013-02-04 17:56:00,9.0,0.3,29.88,SSW,203,0.0,0.0,67,0.00,,SKC,0.00,VWS V14.01,2013-02-04 23:56:00,
2013-02-04 18:00:00,8.7,0.0,29.87,SSW,204,1.0,5.0,67,0.00,,SKC,0.00,VWS V14.01,2013-02-05 00:00:00,
2013-02-04 18:01:00,8.7,0.3,29.88,SSW,204,0.0,0.0,68,0.00,,SKC,0.00,VWS V14.01,2013-02-05 00:01:00,
2013-02-04 18:06:00,8.7,-0.3,29.87,SSW,203,4.0,4.0,66,0.00,,SKC,0.00,VWS V14.01,2013-02-05 00:06:00,
2013-02-04 18:11:00,8.7,0.0,29.87,SSW,201,0.0,6.0,67,0.00,,SKC,0.00,VWS V14.01,2013-02-05 00:11:00,
2013-02-04 18:16:00,8.7,0.3,29.88,SSW,201,0.0,6.0,68,0.00,,SKC,0.00,VWS V14.01,2013-02-05 00:16:00,
2013-02-04 18:22:00,8.7,0.6,29.87,SSW,201,0.0,6.0,69,0.00,,SKC,0.00,VWS V14.01,2013-02-05 00:22:00,
2013-02-04 18:27:00,8.7,0.9,29.87,SSW,201,0.0,6.0,70,0.00,,SKC,0.00,VWS V14.01,2013-02-05 00:27:00,
2013-02-04 18:30:00,8.8,1.3,29.86,SSW,201,0.0,6.0,71,0.00,,SKC,0.00,VWS V14.01,2013-02-05 00:30:00,
2013-02-04 18:32:00,8.8,1.6,29.87,SSW,201,0.0,6.0,72,0.00,,SKC,0.00,VWS V14.01,2013-02-05 00:32:00,
2013-02-04 18:37:00,8.8,1.3,29.86,SSW,201,0.0,0.0,71,0.00,,SKC,0.00,VWS V14.01,2013-02-05 00:37:00,
2013-02-04 18:42:00,8.8,1.3,29.86,SSW,201,0.0,0.0,71,0.00,,SKC,0.00,VWS V14.01,2013-02-05 00:42:00,
2013-02-04 18:47:00,8.8,1.3,29.86,SSW,201,0.0,0.0,71,0.00,,SKC,0.00,VWS V14.01,2013-02-05 00:47:00,
2013-02-04 18:52:00,8.7,0.9,29.86,SSW,201,0.0,0.0,70,0.00,,SKC,0.00,VWS V14.01,2013-02-05 00:52:00,
2013-02-04 18:57:00,8.7,1.2,29.86,SSW,201,0.0,0.0,71,0.00,,SKC,0.00,VWS V14.01,2013-02-05 00:57:00,
2013-02-04 19:00:00,8.8,1.3,29.85,SSW,201,0.0,0.0,71,0.00,,SKC,0.00,VWS V14.01,2013-02-05 01:00:00,
2013-02-04 19:02:00,8.8,1.3,29.86,SSW,201,0.0,0.0,71,0.00,,SKC,0.00,VWS V14.01,2013-02-05 01:02:00,
2013-02-04 19:07:00,8.8,1.3,29.85,SSW,201,0.0,0.0,71,0.00,,SKC,0.00,VWS V14.01,2013-02-05 01:07:00,
2013-02-04 19:12:00,8.9,1.4,29.85,SSW,201,0.0,0.0,71,0.00,,SKC,0.00,VWS V14.01,2013-02-05 01:12:00,
2013-02-04 19:17:00,9.0,1.8,29.85,SSW,201,0.0,0.0,72,0.00,,SKC,0.00,VWS V14.01,2013-02-05 01:17:00,
2013-02-04 19:22:00,9.1,2.2,29.84,SSW,201,0.0,0.0,73,0.00,,SKC,0.00,VWS V14.01,2013-02-05 01:22:00,
2013-02-04 19:28:00,9.2,2.3,29.84,SSW,201,0.0,0.0,73,0.00,,SKC,0.00,VWS V14.01,2013-02-05 01:28:00,
2013-02-04 19:30:00,9.3,2.1,29.84,SSW,201,0.0,0.0,72,0.00,,SKC,0.00,VWS V14.01,2013-02-05 01:30:00,
2013-02-04 19:33:00,9.3,2.1,29.84,SSW,201,0.0,0.0,72,0.00,,SKC,0.00,VWS V14.01,2013-02-05 01:33:00,
2013-02-04 19:38:00,9.4,2.2,29.83,SSW,201,0.0,3.0,72,0.00,,SKC,0.00,VWS V14.01,2013-02-05 01:38:00,
2013-02-04 19:43:00,9.5,2.9,29.84,SSW,201,0.0,3.0,74,0.00,,SKC,0.00,VWS V14.01,2013-02-05 01:43:00,
2013-02-04 19:48:00,9.5,2.6,29.84,SSW,201,0.0,3.0,73,0.00,,SKC,0.00,VWS V14.01,2013-02-05 01:48:00,
2013-02-04 19:53:00,9.6,2.4,29.83,SSW,201,0.0,3.0,72,0.00,,SKC,0.00,VWS V14.01,2013-02-05 01:53:00,
2013-02-04 19:58:00,9.6,2.1,29.83,SSW,201,0.0,3.0,71,0.00,,SKC,0.00,VWS V14.01,2013-02-05 01:58:00,
2013-02-04 20:00:00,9.6,2.1,29.83,SSW,201,0.0,3.0,71,0.00,,SKC,0.00,VWS V14.01,2013-02-05 02:00:00,
2013-02-04 20:03:00,9.6,2.1,29.83,SSW,201,0.0,3.0,71,0.00,,SKC,0.00,VWS V14.01,2013-02-05 02:03:00,
2013-02-04 20:08:00,9.6,2.1,29.82,SSW,201,2.0,2.0,71,0.00,,SKC,0.00,VWS V14.01,2013-02-05 02:08:00,
2013-02-04 20:13:00,9.6,2.1,29.82,SSW,200,2.0,6.0,71,0.00,,SKC,0.00,VWS V14.01,2013-02-05 02:13:00,
2013-02-04 20:18:00,9.7,2.2,29.82,SSW,201,0.0,6.0,71,0.00,,SKC,0.00,VWS V14.01,2013-02-05 02:18:00,
2013-02-04 20:23:00,9.8,2.3,29.82,SSW,200,0.0,6.0,71,0.00,,SKC,0.00,VWS V14.01,2013-02-05 02:23:00,
2013-02-04 20:28:00,9.9,3.3,29.82,SSW,200,0.0,6.0,74,0.00,,SKC,0.00,VWS V14.01,2013-02-05 02:28:00,
2013-02-04 20:30:00,9.9,3.0,29.82,SSW,200,0.0,6.0,73,0.00,,SKC,0.00,VWS V14.01,2013-02-05 02:30:00,
2013-02-04 20:33:00,9.9,3.0,29.82,SSW,200,0.0,6.0,73,0.00,,SKC,0.00,VWS V14.01,2013-02-05 02:33:00,
2013-02-04 20:38:00,9.9,3.0,29.82,SSW,200,0.0,0.0,73,0.00,,SKC,0.00,VWS V14.01,2013-02-05 02:38:00,
2013-02-04 20:43:00,10.1,2.9,29.82,SSW,200,0.0,1.0,72,0.00,,SKC,0.00,VWS V14.01,2013-02-05 02:43:00,
2013-02-04 20:48:00,10.2,3.0,29.82,SSW,201,1.0,4.0,72,0.00,,SKC,0.00,VWS V14.01,2013-02-05 02:48:00,
2013-02-04 20:54:00,10.4,3.5,29.81,SSW,200,0.0,6.0,73,0.00,,SKC,0.00,VWS V14.01,2013-02-05 02:54:00,
2013-02-04 20:59:00,10.4,3.2,29.82,SSW,200,0.0,6.0,72,0.00,,SKC,0.00,VWS V14.01,2013-02-05 02:59:00,
2013-02-04 21:00:00,10.4,3.2,29.81,SSW,200,0.0,6.0,72,0.00,,SKC,0.00,VWS V14.01,2013-02-05 03:00:00,
2013-02-04 21:04:00,10.4,3.2,29.81,SSW,200,1.0,6.0,72,0.00,,SKC,0.00,VWS V14.01,2013-02-05 03:04:00,
2013-02-04 21:09:00,10.4,3.2,29.81,SSW,200,4.0,4.0,72,0.00,,SKC,0.00,VWS V14.01,2013-02-05 03:09:00,
2013-02-04 21:14:00,10.5,3.9,29.80,SSW,200,0.0,4.0,74,0.00,,SKC,0.00,VWS V14.01,2013-02-05 03:14:00,
2013-02-04 21:19:00,10.5,3.6,29.80,SSW,200,3.0,5.0,73,0.00,,SKC,0.00,VWS V14.01,2013-02-05 03:19:00,
2013-02-04 21:24:00,10.4,3.2,29.80,SSW,200,0.0,7.0,72,0.00,,SKC,0.00,VWS V14.01,2013-02-05 03:24:00,
2013-02-04 21:29:00,10.4,3.5,29.80,SSW,200,2.0,7.0,73,0.00,,SKC,0.00,VWS V14.01,2013-02-05 03:29:00,
2013-02-04 21:30:00,10.5,3.6,29.79,SSW,200,1.0,7.0,73,0.00,,SKC,0.00,VWS V14.01,2013-02-05 03:30:00,
2013-02-04 21:34:00,10.4,3.5,29.79,SSW,200,0.0,7.0,73,0.00,,SKC,0.00,VWS V14.01,2013-02-05 03:34:00,
2013-02-04 21:39:00,10.6,4.0,29.79,SSW,202,0.0,9.0,74,0.00,,SKC,0.00,VWS V14.01,2013-02-05 03:39:00,
2013-02-04 21:44:00,10.6,3.7,29.78,SSW,202,3.0,9.0,73,0.00,,SKC,0.00,VWS V14.01,2013-02-05 03:44:00,
2013-02-04 21:49:00,10.6,3.7,29.78,SSW,202,0.0,9.0,73,0.00,,SKC,0.00,VWS V14.01,2013-02-05 03:49:00,
2013-02-04 21:54:00,10.7,3.8,29.78,SSW,202,0.0,9.0,73,0.00,,SKC,0.00,VWS V14.01,2013-02-05 03:54:00,
2013-02-04 21:59:00,10.8,4.2,29.77,SSW,202,0.0,9.0,74,0.00,,SKC,0.00,VWS V14.01,2013-02-05 03:59:00,
2013-02-04 22:00:00,10.8,3.9,29.76,South,177,0.0,9.0,73,0.00,,SKC,0.00,VWS V14.01,2013-02-05 04:00:00,
2013-02-04 22:04:00,10.8,3.9,29.77,South,177,2.0,9.0,73,0.00,,SKC,0.00,VWS V14.01,2013-02-05 04:04:00,
2013-02-04 22:09:00,10.9,4.2,29.76,South,177,0.0,4.0,74,0.00,,SKC,0.00,VWS V14.01,2013-02-05 04:09:00,
2013-02-04 22:14:00,10.9,4.2,29.76,South,177,1.0,5.0,74,0.00,,SKC,0.00,VWS V14.01,2013-02-05 04:14:00,
2013-02-04 22:19:00,10.9,4.6,29.75,South,177,0.0,5.0,75,0.00,,SKC,0.00,VWS V14.01,2013-02-05 04:19:00,
2013-02-04 22:24:00,11.0,5.2,29.75,South,178,2.0,6.0,77,0.00,,SKC,0.00,VWS V14.01,2013-02-05 04:24:00,
2013-02-04 22:29:00,11.0,5.2,29.74,South,178,2.0,6.0,77,0.00,,SKC,0.00,VWS V14.01,2013-02-05 04:29:00,
2013-02-04 22:30:00,10.9,5.1,29.74,South,178,0.0,6.0,77,0.00,,SKC,0.00,VWS V14.01,2013-02-05 04:30:00,
2013-02-04 22:34:00,10.9,5.1,29.74,South,178,0.0,6.0,77,0.00,,SKC,0.00,VWS V14.01,2013-02-05 04:34:00,
2013-02-04 22:39:00,10.8,5.3,29.73,South,178,1.0,4.0,78,0.00,,SKC,0.00,VWS V14.01,2013-02-05 04:39:00,
2013-02-04 22:44:00,10.7,5.5,29.73,South,178,0.0,4.0,79,0.00,,SKC,0.00,VWS V14.01,2013-02-05 04:44:00,
2013-02-04 22:49:00,10.7,5.8,29.72,South,178,0.0,5.0,80,0.00,,SKC,0.00,VWS V14.01,2013-02-05 04:49:00,
2013-02-04 22:55:00,10.6,5.9,29.72,South,177,0.0,6.0,81,0.00,,SKC,0.00,VWS V14.01,2013-02-05 04:55:00,
2013-02-04 23:00:00,10.5,6.1,29.71,South,177,0.0,6.0,82,0.00,,SKC,0.00,VWS V14.01,2013-02-05 05:00:00,
2013-02-04 23:01:00,10.5,6.1,29.71,South,176,0.0,6.0,82,0.00,,SKC,0.00,VWS V14.01,2013-02-05 05:01:00,
2013-02-04 23:04:00,10.5,6.1,29.71,South,176,0.0,6.0,82,0.00,,SKC,0.00,VWS V14.01,2013-02-05 05:04:00,
2013-02-04 23:06:00,10.4,6.0,29.71,South,176,3.0,3.0,82,0.00,,SKC,0.00,VWS V14.01,2013-02-05 05:06:00,
2013-02-04 23:11:00,10.4,6.3,29.70,SSE,160,1.0,7.0,83,0.00,,SKC,0.00,VWS V14.01,2013-02-05 05:11:00,
2013-02-04 23:16:00,10.3,6.4,29.69,SE,145,5.0,9.0,84,0.00,,SKC,0.00,VWS V14.01,2013-02-05 05:16:00,
2013-02-04 23:21:00,10.3,6.4,29.69,SE,144,0.0,9.0,84,0.00,,SKC,0.00,VWS V14.01,2013-02-05 05:21:00,
2013-02-04 23:26:00,10.3,6.4,29.69,SE,144,2.0,10.0,84,0.00,,SKC,0.00,VWS V14.01,2013-02-05 05:26:00,
2013-02-04 23:30:00,10.5,6.9,29.68,SSW,205,6.0,10.0,85,0.00,,SKC,0.00,VWS V14.01,2013-02-05 05:30:00,
2013-02-04 23:31:00,10.4,6.8,29.69,SE,144,0.0,10.0,85,0.00,,SKC,0.00,VWS V14.01,2013-02-05 05:31:00,
2013-02-04 23:36:00,10.5,6.9,29.68,SSW,198,2.0,6.0,85,0.00,,SKC,0.00,VWS V14.01,2013-02-05 05:36:00,
2013-02-04 23:41:00,10.7,7.3,29.68,SSE,163,0.0,8.0,86,0.00,,SKC,0.00,VWS V14.01,2013-02-05 05:41:00,
2013-02-04 23:46:00,10.7,7.3,29.67,SSW,209,7.0,9.0,86,0.00,,SKC,0.00,VWS V14.01,2013-02-05 05:46:00,
2013-02-04 23:51:00,10.9,7.5,29.67,SE,146,0.0,9.0,86,0.00,,SKC,0.00,VWS V14.01,2013-02-05 05:51:00,
2013-02-04 23:56:00,11.1,8.0,29.66,SSE,165,2.0,9.0,87,0.00,,SKC,0.00,VWS V14.01,2013-02-05 05:56:00,